Location: Niverville
(49.6028°N, 97.0419°W)
Time: 06:46:40
(UTC-05:00)

ISS - All Passes

Search period start: 01 May 2016 00:00
Search period end: 11 May 2016 00:00
Orbit: 402 x 405 km, 51.6° (Epoch: 01 May)

Date Brightness Start Highest point End Pass type
(mag) Time Alt. Az. Time Alt. Az. Time Alt. Az.
01 May - 09:37:39 10° SW 09:40:46 41° SSE 09:43:53 10° ENE daylight
01 May - 11:13:54 10° W 11:17:10 67° N 11:20:26 10° ENE daylight
01 May - 12:50:34 10° WNW 12:53:50 65° N 12:57:06 10° E daylight
01 May - 14:27:07 10° WNW 14:30:16 44° SSW 14:33:23 10° SE daylight
02 May - 08:45:37 10° SSW 08:48:25 27° SE 08:51:15 10° E daylight
02 May - 10:21:23 10° WSW 10:24:40 83° NNW 10:27:56 10° ENE daylight
02 May - 11:58:03 10° WNW 12:01:17 58° N 12:04:32 10° E daylight
02 May - 13:34:35 10° WNW 13:37:50 67° SSW 13:41:05 10° ESE daylight
02 May - 15:11:50 10° W 15:13:50 15° SW 15:15:51 10° S daylight
03 May - 07:53:56 10° S 07:56:08 17° SE 07:58:20 10° E daylight
03 May - 09:28:55 10° WSW 09:32:10 72° SSE 09:35:26 10° ENE daylight
03 May - 11:05:29 10° W 11:08:44 58° N 11:11:58 10° ENE daylight
03 May - 12:42:04 10° WNW 12:45:22 88° NNE 12:48:39 10° ESE daylight
03 May - 14:18:50 10° W 14:21:34 24° SW 14:24:17 10° SSE daylight
04 May - 07:03:32 10° SE 07:03:54 10° SE 07:04:15 10° SE daylight
04 May - 08:36:34 10° SW 08:39:43 48° SSE 08:42:54 10° ENE daylight
04 May - 10:12:55 10° W 10:16:10 63° N 10:19:25 10° ENE daylight
04 May - 11:49:34 10° WNW 11:52:50 69° N 11:56:05 10° E daylight
04 May - 13:26:07 10° W 13:29:12 38° SSW 13:32:16 10° SE daylight
05 May - 07:44:24 10° SSW 07:47:19 31° SSE 07:50:16 10° E daylight
05 May - 09:20:20 10° WSW 09:23:37 77° NNW 09:26:54 10° ENE daylight
05 May - 10:57:01 10° WNW 11:00:16 60° N 11:03:31 10° E daylight
05 May - 12:33:32 10° WNW 12:36:46 59° SSW 12:40:00 10° SE daylight
05 May - 14:11:05 10° WSW 14:12:42 13° SW 14:14:18 10° SSW daylight
06 May - 06:52:32 10° S 06:54:59 20° SE 06:57:26 10° E daylight
06 May - 08:27:49 10° WSW 08:31:05 81° SSE 08:34:22 10° ENE daylight
06 May - 10:04:26 10° W 10:07:40 57° N 10:10:55 10° E daylight
06 May - 11:41:00 10° WNW 11:44:17 85° SSW 11:47:33 10° ESE daylight
06 May - 13:17:52 10° W 13:20:24 21° SW 13:22:57 10° SSE daylight
07 May - 06:01:20 10° SSE 06:02:42 12° SE 06:04:04 10° ESE daylight
07 May - 07:35:23 10° SW 07:38:35 55° SSE 07:41:49 10° ENE daylight
07 May - 09:11:50 10° W 09:15:04 61° N 09:18:20 10° ENE daylight
07 May - 10:48:27 10° WNW 10:51:44 74° NNE 10:55:00 10° E daylight
07 May - 12:25:04 10° W 12:28:03 33° SSW 12:31:01 10° SSE daylight
08 May - 06:43:07 10° SW 06:46:09 35° SSE 06:49:11 10° E daylight
08 May - 08:19:13 10° W 08:22:29 71° NNW 08:25:46 10° ENE daylight
08 May - 09:55:53 10° WNW 09:59:09 62° N 10:02:24 10° E daylight
08 May - 11:32:25 10° WNW 11:35:36 51° SSW 11:38:47 10° SE daylight
08 May - 13:10:30 10° WSW 13:11:28 11° SW 13:12:26 10° SSW daylight
09 May - 05:51:07 10° SSW 05:53:45 23° SE 05:56:24 10° E daylight
09 May - 07:26:38 10° WSW 07:29:55 89° S 07:33:12 10° ENE daylight
09 May - 09:03:17 10° W 09:06:32 57° N 09:09:46 10° E daylight
09 May - 10:39:50 10° WNW 10:43:06 76° SSW 10:46:22 10° ESE daylight
09 May - 12:16:51 10° W 12:19:11 18° SW 12:21:29 10° S daylight
10 May - 04:59:34 10° S 05:01:25 14° SE 05:03:15 10° ESE visible
10 May - 06:34:08 10° WSW 06:37:22 63° SSE 06:40:38 10° ENE daylight
10 May - 08:10:39 10° W 08:13:54 59° N 08:17:09 10° ENE daylight
10 May - 09:47:15 10° WNW 09:50:33 80° NNE 09:53:49 10° ESE daylight
10 May - 11:23:55 10° W 11:26:48 28° SW 11:29:40 10° SSE daylight
